contact:dominique.lefevre@mio.osupytheas.fr, maurice.libes@osupytheas.fr, didier.mallarino@osupytheas.fr
Project:EMSO http://www.emso-fr.org/EMSO-France
Depth: 2436.0 m
Title:EMSO Ligure Ouest : Data MII capteur MICROCAT
DateTime_Computer,Latitude,Longitude,Temperature,Conductivity,Pressure,DateTime_Instrument
DateTime_Computer,Latitude,Longitude,degC,S m-1,dbar,DateTime_Instrument
2023-02-28T00:02:58Z,42.805,6.029,13.3037,4.60092,2470.684,2023-2-28T02:05:29Z
2023-02-28T00:06:01Z,42.805,6.029,13.3036,4.60109,2470.684,2023-2-28T02:08:32Z
2023-02-28T00:09:04Z,42.805,6.029,13.3036,4.60097,2470.707,2023-2-28T02:11:35Z
2023-02-28T00:12:07Z,42.805,6.029,13.3041,4.60141,2470.624,2023-2-28T02:14:38Z
2023-02-28T00:15:10Z,42.805,6.029,13.3061,4.60138,2470.646,2023-2-28T02:17:41Z
2023-02-28T00:18:13Z,42.805,6.029,13.3038,4.60140,2470.693,2023-2-28T02:20:44Z
2023-02-28T00:21:17Z,42.805,6.029,13.3046,4.60081,2470.646,2023-2-28T02:23:48Z
2023-02-28T00:24:20Z,42.805,6.029,13.3034,4.60096,2470.646,2023-2-28T02:26:51Z
2023-02-28T00:27:23Z,42.805,6.029,13.3042,4.60094,2470.684,2023-2-28T02:29:54Z
2023-02-28T00:30:26Z,42.805,6.029,13.3028,4.60106,2470.633,2023-2-28T02:32:57Z
2023-02-28T00:33:29Z,42.805,6.029,13.3024,4.60099,2470.707,2023-2-28T02:36:00Z
2023-02-28T00:36:32Z,42.805,6.029,13.3024,4.60117,2470.67,2023-2-28T02:39:03Z
2023-02-28T00:39:35Z,42.805,6.029,13.3026,4.60117,2470.684,2023-2-28T02:42:06Z
2023-02-28T00:42:38Z,42.805,6.029,13.3032,4.60141,2470.684,2023-2-28T02:45:09Z
2023-02-28T00:45:41Z,42.805,6.029,13.3028,4.60111,2470.684,2023-2-28T02:48:12Z
2023-02-28T00:48:44Z,42.805,6.029,13.3034,4.60119,2470.67,2023-2-28T02:51:15Z
2023-02-28T00:51:47Z,42.805,6.029,13.3026,4.60114,2470.707,2023-2-28T02:54:18Z
2023-02-28T00:54:50Z,42.805,6.029,13.3035,4.60115,2470.661,2023-2-28T02:57:21Z
2023-02-28T00:57:53Z,42.805,6.029,13.3028,4.60128,2470.646,2023-2-28T03:00:24Z
2023-02-28T01:00:57Z,42.805,6.029,13.3029,4.60132,2470.684,2023-2-28T03:03:28Z
2023-02-28T01:04:00Z,42.805,6.029,13.3038,4.60137,2470.707,2023-2-28T03:06:31Z
2023-02-28T01:07:03Z,42.805,6.029,13.3031,4.60137,2470.684,2023-2-28T03:09:34Z
2023-02-28T01:10:06Z,42.805,6.029,13.3032,4.60134,2470.73,2023-2-28T03:12:37Z
2023-02-28T01:13:09Z,42.805,6.029,13.3037,4.60139,2470.661,2023-2-28T03:15:40Z
2023-02-28T01:16:12Z,42.805,6.029,13.3027,4.60133,2470.67,2023-2-28T03:18:43Z
2023-02-28T01:19:15Z,42.805,6.029,13.3033,4.60128,2470.661,2023-2-28T03:21:46Z
2023-02-28T01:22:18Z,42.805,6.029,13.3035,4.60124,2470.646,2023-2-28T03:24:49Z
2023-02-28T01:25:21Z,42.805,6.029,13.3035,4.60147,2470.661,2023-2-28T03:27:52Z
2023-02-28T01:28:24Z,42.805,6.029,13.3024,4.60142,2470.646,2023-2-28T03:30:55Z
2023-02-28T01:31:27Z,42.805,6.029,13.3031,4.60121,2470.67,2023-2-28T03:33:58Z
2023-02-28T01:34:30Z,42.805,6.029,13.3038,4.60136,2470.67,2023-2-28T03:37:01Z
2023-02-28T01:37:34Z,42.805,6.029,13.3036,4.60137,2470.646,2023-2-28T03:40:05Z
2023-02-28T01:40:37Z,42.805,6.029,13.3031,4.60133,2470.646,2023-2-28T03:43:08Z
2023-02-28T01:43:40Z,42.805,6.029,13.3036,4.60140,2470.684,2023-2-28T03:46:11Z
2023-02-28T01:46:43Z,42.805,6.029,13.3042,4.60147,2470.693,2023-2-28T03:49:14Z
2023-02-28T01:49:46Z,42.805,6.029,13.3035,4.60133,2470.637,2023-2-28T03:52:17Z
2023-02-28T01:52:49Z,42.805,6.029,13.3032,4.60133,2470.646,2023-2-28T03:55:20Z
2023-02-28T01:55:52Z,42.805,6.029,13.3028,4.60133,2470.684,2023-2-28T03:58:23Z
2023-02-28T01:58:55Z,42.805,6.029,13.3029,4.60155,2470.684,2023-2-28T04:01:26Z
2023-02-28T02:01:58Z,42.805,6.029,13.3039,4.60143,2470.693,2023-2-28T04:04:29Z
2023-02-28T02:05:01Z,42.805,6.029,13.3033,4.60121,2470.707,2023-2-28T04:07:32Z
2023-02-28T02:08:04Z,42.805,6.029,13.3039,4.60136,2470.707,2023-2-28T04:10:35Z
2023-02-28T02:11:07Z,42.805,6.029,13.3028,4.60116,2470.67,2023-2-28T04:13:38Z
2023-02-28T02:14:10Z,42.805,6.029,13.3031,4.60132,2470.67,2023-2-28T04:16:41Z
2023-02-28T02:17:14Z,42.805,6.029,13.3033,4.60132,2470.646,2023-2-28T04:19:45Z
2023-02-28T02:20:17Z,42.805,6.029,13.3028,4.60127,2470.67,2023-2-28T04:22:48Z
2023-02-28T02:23:20Z,42.805,6.029,13.3040,4.60126,2470.646,2023-2-28T04:25:51Z
2023-02-28T02:26:23Z,42.805,6.029,13.3029,4.60098,2470.646,2023-2-28T04:28:54Z
2023-02-28T02:29:26Z,42.805,6.029,13.3035,4.60144,2470.67,2023-2-28T04:31:57Z
2023-02-28T02:32:29Z,42.805,6.029,13.3034,4.60119,2470.693,2023-2-28T04:35:00Z
2023-02-28T02:35:32Z,42.805,6.029,13.3041,4.60120,2470.67,2023-2-28T04:38:03Z
2023-02-28T02:38:35Z,42.805,6.029,13.3029,4.60114,2470.67,2023-2-28T04:41:06Z
2023-02-28T02:41:38Z,42.805,6.029,13.3029,4.60100,2470.684,2023-2-28T04:44:09Z
2023-02-28T02:44:41Z,42.805,6.029,13.3032,4.60117,2470.67,2023-2-28T04:47:12Z
2023-02-28T02:47:44Z,42.805,6.029,13.3030,4.60109,2470.684,2023-2-28T04:50:15Z
2023-02-28T02:50:47Z,42.805,6.029,13.3043,4.60105,2470.646,2023-2-28T04:53:18Z
2023-02-28T02:53:50Z,42.805,6.029,13.3034,4.60107,2470.693,2023-2-28T04:56:22Z
2023-02-28T02:56:54Z,42.805,6.029,13.3033,4.60108,2470.73,2023-2-28T04:59:25Z
2023-02-28T02:59:57Z,42.805,6.029,13.3023,4.60112,2470.67,2023-2-28T05:02:28Z
2023-02-28T03:03:00Z,42.805,6.029,13.3029,4.60114,2470.67,2023-2-28T05:05:31Z
2023-02-28T03:06:03Z,42.805,6.029,13.3036,4.60121,2470.646,2023-2-28T05:08:34Z
2023-02-28T03:09:06Z,42.805,6.029,13.3029,4.60102,2470.684,2023-2-28T05:11:37Z
2023-02-28T03:12:09Z,42.805,6.029,13.3026,4.60104,2470.646,2023-2-28T05:14:40Z
2023-02-28T03:15:12Z,42.805,6.029,13.3032,4.60110,2470.67,2023-2-28T05:17:43Z
2023-02-28T03:18:15Z,42.805,6.029,13.3032,4.60120,2470.646,2023-2-28T05:20:46Z
2023-02-28T03:21:18Z,42.805,6.029,13.3031,4.60099,2470.624,2023-2-28T05:23:49Z
2023-02-28T03:24:21Z,42.805,6.029,13.3030,4.60112,2470.624,2023-2-28T05:26:52Z
2023-02-28T03:27:24Z,42.805,6.029,13.3030,4.60110,2470.67,2023-2-28T05:29:55Z
2023-02-28T03:30:27Z,42.805,6.029,13.3029,4.60114,2470.646,2023-2-28T05:32:59Z
2023-02-28T03:33:31Z,42.805,6.029,13.3029,4.60102,2470.67,2023-2-28T05:36:02Z
2023-02-28T03:36:34Z,42.805,6.029,13.3028,4.60109,2470.684,2023-2-28T05:39:05Z
2023-02-28T03:39:37Z,42.805,6.029,13.3041,4.60101,2470.661,2023-2-28T05:42:08Z
2023-02-28T03:42:40Z,42.805,6.029,13.3024,4.60112,2470.661,2023-2-28T05:45:11Z
2023-02-28T03:45:43Z,42.805,6.029,13.3027,4.60093,2470.656,2023-2-28T05:48:14Z
2023-02-28T03:48:46Z,42.805,6.029,13.3029,4.60106,2470.661,2023-2-28T05:51:17Z
2023-02-28T03:51:49Z,42.805,6.029,13.3033,4.60107,2470.646,2023-2-28T05:54:20Z
2023-02-28T03:54:52Z,42.805,6.029,13.3037,4.60123,2470.684,2023-2-28T05:57:23Z
2023-02-28T03:57:55Z,42.805,6.029,13.3029,4.60112,2470.661,2023-2-28T06:00:26Z
2023-02-28T04:00:58Z,42.805,6.029,13.3031,4.60097,2470.646,2023-2-28T06:03:29Z
2023-02-28T04:04:01Z,42.805,6.029,13.3029,4.60100,2470.646,2023-2-28T06:06:32Z
2023-02-28T04:07:04Z,42.805,6.029,13.3032,4.60114,2470.646,2023-2-28T06:09:35Z
2023-02-28T04:10:07Z,42.805,6.029,13.3027,4.60109,2470.661,2023-2-28T06:12:39Z
2023-02-28T04:13:11Z,42.805,6.029,13.3038,4.60109,2470.693,2023-2-28T06:15:42Z
2023-02-28T04:16:14Z,42.805,6.029,13.3025,4.60101,2470.693,2023-2-28T06:18:45Z
2023-02-28T04:19:17Z,42.805,6.029,13.3030,4.60107,2470.661,2023-2-28T06:21:48Z
2023-02-28T04:22:20Z,42.805,6.029,13.3032,4.60122,2470.67,2023-2-28T06:24:51Z
2023-02-28T04:25:23Z,42.805,6.029,13.3029,4.60108,2470.646,2023-2-28T06:27:54Z
2023-02-28T04:28:26Z,42.805,6.029,13.3032,4.60106,2470.661,2023-2-28T06:30:57Z
2023-02-28T04:31:29Z,42.805,6.029,13.3038,4.60121,2470.624,2023-2-28T06:34:00Z
2023-02-28T04:34:32Z,42.805,6.029,13.3039,4.60109,2470.661,2023-2-28T06:37:03Z
2023-02-28T04:37:35Z,42.805,6.029,13.3036,4.60127,2470.637,2023-2-28T06:40:06Z
2023-02-28T04:40:38Z,42.805,6.029,13.3033,4.60095,2470.646,2023-2-28T06:43:09Z
2023-02-28T04:43:41Z,42.805,6.029,13.3038,4.60096,2470.646,2023-2-28T06:46:12Z
2023-02-28T04:46:44Z,42.805,6.029,13.3037,4.60117,2470.67,2023-2-28T06:49:16Z
2023-02-28T04:49:48Z,42.805,6.029,13.3032,4.60098,2470.67,2023-2-28T06:52:19Z
2023-02-28T04:52:51Z,42.805,6.029,13.3034,4.60113,2470.637,2023-2-28T06:55:22Z
2023-02-28T04:55:54Z,42.805,6.029,13.3031,4.60102,2470.646,2023-2-28T06:58:25Z
2023-02-28T04:58:57Z,42.805,6.029,13.3029,4.60105,2470.624,2023-2-28T07:01:28Z
2023-02-28T05:02:00Z,42.805,6.029,13.3031,4.60098,2470.637,2023-2-28T07:04:31Z
2023-02-28T05:05:03Z,42.805,6.029,13.3038,4.60105,2470.637,2023-2-28T07:07:34Z
2023-02-28T05:08:06Z,42.805,6.029,13.3031,4.60110,2470.637,2023-2-28T07:10:37Z
2023-02-28T05:11:09Z,42.805,6.029,13.3032,4.60106,2470.646,2023-2-28T07:13:40Z
2023-02-28T05:14:12Z,42.805,6.029,13.3032,4.60110,2470.693,2023-2-28T07:16:43Z
2023-02-28T05:17:15Z,42.805,6.029,13.3033,4.60111,2470.67,2023-2-28T07:19:46Z
2023-02-28T05:20:18Z,42.805,6.029,13.3031,4.60105,2470.646,2023-2-28T07:22:49Z
2023-02-28T05:23:21Z,42.805,6.029,13.3023,4.60104,2470.624,2023-2-28T07:25:52Z
2023-02-28T05:26:24Z,42.805,6.029,13.3035,4.60084,2470.6,2023-2-28T07:28:56Z
2023-02-28T05:29:28Z,42.805,6.029,13.3032,4.60088,2470.646,2023-2-28T07:31:59Z
2023-02-28T05:32:31Z,42.805,6.029,13.3024,4.60109,2470.646,2023-2-28T07:35:02Z
2023-02-28T05:35:34Z,42.805,6.029,13.3029,4.60104,2470.646,2023-2-28T07:38:05Z
2023-02-28T05:38:37Z,42.805,6.029,13.3025,4.60113,2470.67,2023-2-28T07:41:08Z
2023-02-28T05:41:40Z,42.805,6.029,13.3022,4.60098,2470.646,2023-2-28T07:44:11Z
2023-02-28T05:44:43Z,42.805,6.029,13.3025,4.60091,2470.646,2023-2-28T07:47:14Z
2023-02-28T05:47:46Z,42.805,6.029,13.3027,4.60110,2470.646,2023-2-28T07:50:17Z
2023-02-28T05:50:49Z,42.805,6.029,13.3031,4.60109,2470.67,2023-2-28T07:53:20Z
2023-02-28T05:53:52Z,42.805,6.029,13.3027,4.60102,2470.646,2023-2-28T07:56:23Z
2023-02-28T05:56:55Z,42.805,6.029,13.3025,4.60090,2470.637,2023-2-28T07:59:26Z
2023-02-28T05:59:58Z,42.805,6.029,13.3033,4.60106,2470.624,2023-2-28T08:02:29Z
2023-02-28T06:03:01Z,42.805,6.029,13.3027,4.60104,2470.646,2023-2-28T08:05:33Z
2023-02-28T06:06:04Z,42.805,6.029,13.3039,4.60109,2470.637,2023-2-28T08:08:36Z
2023-02-28T06:09:08Z,42.805,6.029,13.3026,4.60099,2470.624,2023-2-28T08:11:39Z
2023-02-28T06:12:11Z,42.805,6.029,13.3027,4.60112,2470.661,2023-2-28T08:14:42Z
2023-02-28T06:15:14Z,42.805,6.029,13.3027,4.60097,2470.624,2023-2-28T08:17:45Z
2023-02-28T06:18:17Z,42.805,6.029,13.3023,4.60097,2470.637,2023-2-28T08:20:48Z
2023-02-28T06:21:20Z,42.805,6.029,13.3031,4.60103,2470.624,2023-2-28T08:23:51Z
2023-02-28T06:24:23Z,42.805,6.029,13.3029,4.60097,2470.624,2023-2-28T08:26:54Z
2023-02-28T06:27:26Z,42.805,6.029,13.3028,4.60107,2470.624,2023-2-28T08:29:57Z
2023-02-28T06:30:29Z,42.805,6.029,13.3034,4.60108,2470.6,2023-2-28T08:33:00Z
2023-02-28T06:33:32Z,42.805,6.029,13.3029,4.60099,2470.624,2023-2-28T08:36:03Z
2023-02-28T06:36:35Z,42.805,6.029,13.3033,4.60106,2470.637,2023-2-28T08:39:06Z
2023-02-28T06:39:38Z,42.805,6.029,13.3027,4.60107,2470.646,2023-2-28T08:42:10Z
2023-02-28T06:42:41Z,42.805,6.029,13.3027,4.60105,2470.661,2023-2-28T08:45:13Z
2023-02-28T06:45:45Z,42.805,6.029,13.3031,4.60114,2470.646,2023-2-28T08:48:16Z
2023-02-28T06:48:48Z,42.805,6.029,13.3029,4.60106,2470.646,2023-2-28T08:51:19Z
2023-02-28T06:51:51Z,42.805,6.029,13.3035,4.60123,2470.6,2023-2-28T08:54:22Z
2023-02-28T06:54:54Z,42.805,6.029,13.3031,4.60106,2470.624,2023-2-28T08:57:25Z
2023-02-28T06:57:57Z,42.805,6.029,13.3036,4.60100,2470.633,2023-2-28T09:00:28Z
2023-02-28T07:01:00Z,42.805,6.029,13.3032,4.60099,2470.637,2023-2-28T09:03:31Z
2023-02-28T07:04:03Z,42.805,6.029,13.3031,4.60103,2470.646,2023-2-28T09:06:34Z
2023-02-28T07:07:06Z,42.805,6.029,13.3029,4.60104,2470.624,2023-2-28T09:09:37Z
2023-02-28T07:10:09Z,42.805,6.029,13.3029,4.60109,2470.67,2023-2-28T09:12:40Z
2023-02-28T07:13:12Z,42.805,6.029,13.3031,4.60094,2470.684,2023-2-28T09:15:43Z
2023-02-28T07:16:15Z,42.805,6.029,13.3034,4.60097,2470.624,2023-2-28T09:18:47Z
2023-02-28T07:19:18Z,42.805,6.029,13.3034,4.60112,2470.637,2023-2-28T09:21:50Z
2023-02-28T07:22:22Z,42.805,6.029,13.3029,4.60101,2470.684,2023-2-28T09:24:53Z
2023-02-28T07:25:25Z,42.805,6.029,13.3028,4.60103,2470.624,2023-2-28T09:27:56Z
2023-02-28T07:28:28Z,42.805,6.029,13.3028,4.60095,2470.624,2023-2-28T09:30:59Z
2023-02-28T07:31:31Z,42.805,6.029,13.3028,4.60089,2470.624,2023-2-28T09:34:02Z
2023-02-28T07:34:34Z,42.805,6.029,13.3029,4.60094,2470.624,2023-2-28T09:37:05Z
2023-02-28T07:37:37Z,42.805,6.029,13.3027,4.60086,2470.646,2023-2-28T09:40:08Z
2023-02-28T07:40:40Z,42.805,6.029,13.3030,4.60099,2470.646,2023-2-28T09:43:11Z
2023-02-28T07:43:43Z,42.805,6.029,13.3028,4.60101,2470.6,2023-2-28T09:46:14Z
2023-02-28T07:46:46Z,42.805,6.029,13.3023,4.60100,2470.624,2023-2-28T09:49:17Z
2023-02-28T07:49:49Z,42.805,6.029,13.3031,4.60090,2470.624,2023-2-28T09:52:20Z
2023-02-28T07:52:52Z,42.805,6.029,13.3035,4.60097,2470.637,2023-2-28T09:55:23Z
2023-02-28T07:55:55Z,42.805,6.029,13.3024,4.60093,2470.646,2023-2-28T09:58:27Z
2023-02-28T07:58:58Z,42.805,6.029,13.3036,4.60105,2470.624,2023-2-28T10:01:30Z
2023-02-28T08:02:02Z,42.805,6.029,13.3026,4.60087,2470.624,2023-2-28T10:04:33Z
2023-02-28T08:05:05Z,42.805,6.029,13.3028,4.60094,2470.6,2023-2-28T10:07:36Z
2023-02-28T08:08:08Z,42.805,6.029,13.3029,4.60103,2470.67,2023-2-28T10:10:39Z
2023-02-28T08:11:11Z,42.805,6.029,13.3034,4.60101,2470.624,2023-2-28T10:13:42Z
2023-02-28T08:14:14Z,42.805,6.029,13.3026,4.60098,2470.646,2023-2-28T10:16:45Z
2023-02-28T08:17:17Z,42.805,6.029,13.3039,4.60130,2470.624,2023-2-28T10:19:48Z
2023-02-28T08:20:20Z,42.805,6.029,13.3036,4.60097,2470.6,2023-2-28T10:22:51Z
2023-02-28T08:23:23Z,42.805,6.029,13.3037,4.60126,2470.646,2023-2-28T10:25:54Z
2023-02-28T08:26:26Z,42.805,6.029,13.3033,4.60113,2470.637,2023-2-28T10:28:57Z
2023-02-28T08:29:29Z,42.805,6.029,13.3039,4.60094,2470.624,2023-2-28T10:32:00Z
2023-02-28T08:32:32Z,42.805,6.029,13.3034,4.60119,2470.624,2023-2-28T10:35:04Z
2023-02-28T08:35:35Z,42.805,6.029,13.3043,4.60133,2470.624,2023-2-28T10:38:07Z
2023-02-28T08:38:39Z,42.805,6.029,13.3036,4.60109,2470.624,2023-2-28T10:41:10Z
2023-02-28T08:41:42Z,42.805,6.029,13.3048,4.60134,2470.624,2023-2-28T10:44:13Z
2023-02-28T08:44:45Z,42.805,6.029,13.3047,4.60115,2470.637,2023-2-28T10:47:16Z
2023-02-28T08:47:48Z,42.805,6.029,13.3033,4.60113,2470.6,2023-2-28T10:50:19Z
2023-02-28T08:50:51Z,42.805,6.029,13.3041,4.60132,2470.624,2023-2-28T10:53:22Z
2023-02-28T08:53:54Z,42.805,6.029,13.3034,4.60112,2470.6,2023-2-28T10:56:25Z
2023-02-28T08:56:57Z,42.805,6.029,13.3039,4.60148,2470.661,2023-2-28T10:59:28Z
2023-02-28T09:00:00Z,42.805,6.029,13.3043,4.60093,2470.646,2023-2-28T11:02:31Z
2023-02-28T09:03:03Z,42.805,6.029,13.3026,4.60100,2470.624,2023-2-28T11:05:34Z
2023-02-28T09:06:06Z,42.805,6.029,13.3029,4.60080,2470.637,2023-2-28T11:08:38Z
2023-02-28T09:09:09Z,42.805,6.029,13.3036,4.60102,2470.614,2023-2-28T11:11:41Z
2023-02-28T09:12:13Z,42.805,6.029,13.3031,4.60125,2470.637,2023-2-28T11:14:44Z
2023-02-28T09:15:16Z,42.805,6.029,13.3041,4.60120,2470.637,2023-2-28T11:17:47Z
2023-02-28T09:18:19Z,42.805,6.029,13.3035,4.60104,2470.624,2023-2-28T11:20:50Z
2023-02-28T09:21:22Z,42.805,6.029,13.3032,4.60102,2470.646,2023-2-28T11:23:53Z
2023-02-28T09:24:25Z,42.805,6.029,13.3034,4.60091,2470.646,2023-2-28T11:26:56Z
2023-02-28T09:27:28Z,42.805,6.029,13.3033,4.60092,2470.637,2023-2-28T11:29:59Z
2023-02-28T09:30:31Z,42.805,6.029,13.3036,4.60126,2470.637,2023-2-28T11:33:02Z
2023-02-28T09:33:34Z,42.805,6.029,13.3055,4.60130,2470.624,2023-2-28T11:36:05Z
2023-02-28T09:36:37Z,42.805,6.029,13.3042,4.60125,2470.661,2023-2-28T11:39:08Z
2023-02-28T09:39:40Z,42.805,6.029,13.3027,4.60122,2470.646,2023-2-28T11:42:11Z
2023-02-28T09:42:43Z,42.805,6.029,13.3039,4.60113,2470.67,2023-2-28T11:45:15Z
2023-02-28T09:45:46Z,42.805,6.029,13.3046,4.60120,2470.637,2023-2-28T11:48:18Z
2023-02-28T09:48:50Z,42.805,6.029,13.3036,4.60131,2470.646,2023-2-28T11:51:21Z
2023-02-28T09:51:53Z,42.805,6.029,13.3036,4.60132,2470.67,2023-2-28T11:54:24Z
2023-02-28T09:54:56Z,42.805,6.029,13.3034,4.60157,2470.637,2023-2-28T11:57:27Z
2023-02-28T09:57:59Z,42.805,6.029,13.3048,4.60131,2470.646,2023-2-28T12:00:30Z
2023-02-28T10:01:02Z,42.805,6.029,13.3046,4.60097,2470.624,2023-2-28T12:03:33Z
2023-02-28T10:04:05Z,42.805,6.029,13.3054,4.60130,2470.637,2023-2-28T12:06:36Z
2023-02-28T10:07:08Z,42.805,6.029,13.3066,4.60182,2470.624,2023-2-28T12:09:39Z
2023-02-28T10:10:11Z,42.805,6.029,13.3073,4.60174,2470.6,2023-2-28T12:12:42Z
2023-02-28T10:13:14Z,42.805,6.029,13.3082,4.60163,2470.646,2023-2-28T12:15:45Z
2023-02-28T10:16:17Z,42.805,6.029,13.3065,4.60137,2470.637,2023-2-28T12:18:48Z
2023-02-28T10:19:20Z,42.805,6.029,13.3069,4.60108,2470.624,2023-2-28T12:21:52Z
2023-02-28T10:22:23Z,42.805,6.029,13.3078,4.60141,2470.684,2023-2-28T12:24:55Z
2023-02-28T10:25:27Z,42.805,6.029,13.3064,4.60162,2470.624,2023-2-28T12:27:58Z
2023-02-28T10:28:30Z,42.805,6.029,13.3078,4.60117,2470.661,2023-2-28T12:31:01Z
2023-02-28T10:31:33Z,42.805,6.029,13.3056,4.60178,2470.646,2023-2-28T12:34:04Z
2023-02-28T10:34:36Z,42.805,6.029,13.3076,4.60169,2470.646,2023-2-28T12:37:07Z
2023-02-28T10:37:39Z,42.805,6.029,13.3080,4.60138,2470.661,2023-2-28T12:40:10Z
2023-02-28T10:40:42Z,42.805,6.029,13.3052,4.60129,2470.661,2023-2-28T12:43:13Z
2023-02-28T10:43:45Z,42.805,6.029,13.3070,4.60152,2470.637,2023-2-28T12:46:16Z
2023-02-28T10:46:48Z,42.805,6.029,13.3070,4.60129,2470.624,2023-2-28T12:49:19Z
2023-02-28T10:49:51Z,42.805,6.029,13.3074,4.60132,2470.646,2023-2-28T12:52:22Z
2023-02-28T10:52:54Z,42.805,6.029,13.3079,4.60139,2470.661,2023-2-28T12:55:26Z
2023-02-28T10:55:57Z,42.805,6.029,13.3076,4.60221,2470.661,2023-2-28T12:58:29Z
2023-02-28T10:59:00Z,42.805,6.029,13.3050,4.60168,2470.646,2023-2-28T13:01:32Z
2023-02-28T11:02:04Z,42.805,6.029,13.3087,4.60135,2470.684,2023-2-28T13:04:35Z
2023-02-28T11:05:07Z,42.805,6.029,13.3087,4.60106,2470.637,2023-2-28T13:07:38Z
2023-02-28T11:08:10Z,42.805,6.029,13.3080,4.60166,2470.6,2023-2-28T13:10:41Z
2023-02-28T11:11:13Z,42.805,6.029,13.3072,4.60129,2470.67,2023-2-28T13:13:44Z
2023-02-28T11:14:16Z,42.805,6.029,13.3044,4.60113,2470.646,2023-2-28T13:16:47Z
2023-02-28T11:17:19Z,42.805,6.029,13.3051,4.60139,2470.624,2023-2-28T13:19:50Z
2023-02-28T11:20:22Z,42.805,6.029,13.3059,4.60125,2470.637,2023-2-28T13:22:53Z
2023-02-28T11:23:25Z,42.805,6.029,13.3071,4.60117,2470.646,2023-2-28T13:25:56Z
2023-02-28T11:26:28Z,42.805,6.029,13.3073,4.60138,2470.624,2023-2-28T13:28:59Z
2023-02-28T11:29:31Z,42.805,6.029,13.3066,4.60129,2470.637,2023-2-28T13:32:03Z
2023-02-28T11:32:34Z,42.805,6.029,13.3073,4.60122,2470.614,2023-2-28T13:35:06Z
2023-02-28T11:35:38Z,42.805,6.029,13.3113,4.60087,2470.637,2023-2-28T13:38:09Z
2023-02-28T11:38:41Z,42.805,6.029,13.3069,4.60085,2470.661,2023-2-28T13:41:12Z
2023-02-28T11:41:44Z,42.805,6.029,13.3039,4.60090,2470.67,2023-2-28T13:44:15Z
2023-02-28T11:44:47Z,42.805,6.029,13.3054,4.60101,2470.661,2023-2-28T13:47:18Z
2023-02-28T11:47:50Z,42.805,6.029,13.3073,4.60117,2470.624,2023-2-28T13:50:21Z
2023-02-28T11:50:53Z,42.805,6.029,13.3102,4.60089,2470.637,2023-2-28T13:53:24Z
2023-02-28T11:53:56Z,42.805,6.029,13.3093,4.60097,2470.684,2023-2-28T13:56:27Z
2023-02-28T11:56:59Z,42.805,6.029,13.3073,4.60114,2470.624,2023-2-28T13:59:30Z
2023-02-28T12:00:02Z,42.805,6.029,13.3059,4.60124,2470.661,2023-2-28T14:02:33Z
2023-02-28T12:03:05Z,42.805,6.029,13.3063,4.60132,2470.646,2023-2-28T14:05:37Z
2023-02-28T12:06:08Z,42.805,6.029,13.3073,4.60127,2470.624,2023-2-28T14:08:40Z
2023-02-28T12:09:11Z,42.805,6.029,13.3078,4.60099,2470.637,2023-2-28T14:11:43Z
2023-02-28T12:12:15Z,42.805,6.029,13.3078,4.60113,2470.637,2023-2-28T14:14:46Z
2023-02-28T12:15:18Z,42.805,6.029,13.3077,4.60135,2470.624,2023-2-28T14:17:49Z
2023-02-28T12:18:21Z,42.805,6.029,13.3077,4.60121,2470.661,2023-2-28T14:20:52Z
2023-02-28T12:21:24Z,42.805,6.029,13.3078,4.60092,2470.646,2023-2-28T14:23:55Z
2023-02-28T12:24:27Z,42.805,6.029,13.3091,4.60104,2470.661,2023-2-28T14:26:58Z
2023-02-28T12:27:30Z,42.805,6.029,13.3044,4.60098,2470.684,2023-2-28T14:30:01Z
2023-02-28T12:30:33Z,42.805,6.029,13.3019,4.60079,2470.684,2023-2-28T14:33:04Z
2023-02-28T12:33:36Z,42.805,6.029,13.3020,4.60156,2470.637,2023-2-28T14:36:07Z
2023-02-28T12:36:39Z,42.805,6.029,13.3016,4.60102,2470.661,2023-2-28T14:39:10Z
2023-02-28T12:39:42Z,42.805,6.029,13.3015,4.60084,2470.646,2023-2-28T14:42:14Z
2023-02-28T12:42:45Z,42.805,6.029,13.3014,4.60073,2470.637,2023-2-28T14:45:17Z
2023-02-28T12:45:48Z,42.805,6.029,13.3014,4.60064,2470.646,2023-2-28T14:48:20Z
2023-02-28T12:48:52Z,42.805,6.029,13.3015,4.60063,2470.637,2023-2-28T14:51:23Z
2023-02-28T12:51:55Z,42.805,6.029,13.3015,4.60064,2470.637,2023-2-28T14:54:26Z
2023-02-28T12:54:58Z,42.805,6.029,13.3011,4.60064,2470.646,2023-2-28T14:57:29Z
2023-02-28T12:58:01Z,42.805,6.029,13.3011,4.60064,2470.646,2023-2-28T15:00:32Z
2023-02-28T13:01:04Z,42.805,6.029,13.3011,4.60064,2470.661,2023-2-28T15:03:35Z
2023-02-28T13:04:07Z,42.805,6.029,13.3013,4.60063,2470.661,2023-2-28T15:06:38Z
2023-02-28T13:07:10Z,42.805,6.029,13.3013,4.60065,2470.646,2023-2-28T15:09:41Z
2023-02-28T13:10:13Z,42.805,6.029,13.3015,4.60067,2470.646,2023-2-28T15:12:44Z
2023-02-28T13:13:16Z,42.805,6.029,13.3011,4.60064,2470.693,2023-2-28T15:15:47Z
2023-02-28T13:16:19Z,42.805,6.029,13.3013,4.60079,2470.646,2023-2-28T15:18:51Z
2023-02-28T13:19:22Z,42.805,6.029,13.3010,4.60068,2470.646,2023-2-28T15:21:54Z
2023-02-28T13:22:25Z,42.805,6.029,13.3015,4.60072,2470.624,2023-2-28T15:24:57Z
2023-02-28T13:25:29Z,42.805,6.029,13.3017,4.60067,2470.646,2023-2-28T15:28:00Z
2023-02-28T13:28:32Z,42.805,6.029,13.3014,4.60064,2470.646,2023-2-28T15:31:03Z
2023-02-28T13:31:35Z,42.805,6.029,13.3011,4.60067,2470.624,2023-2-28T15:34:06Z
2023-02-28T13:34:38Z,42.805,6.029,13.3013,4.60063,2470.67,2023-2-28T15:37:09Z
2023-02-28T13:37:41Z,42.805,6.029,13.3015,4.60064,2470.67,2023-2-28T15:40:12Z
2023-02-28T13:40:44Z,42.805,6.029,13.3013,4.60066,2470.646,2023-2-28T15:43:15Z
2023-02-28T13:43:47Z,42.805,6.029,13.3016,4.60069,2470.661,2023-2-28T15:46:18Z
2023-02-28T13:46:50Z,42.805,6.029,13.3017,4.60069,2470.646,2023-2-28T15:49:21Z
2023-02-28T13:49:53Z,42.805,6.029,13.3025,4.60079,2470.646,2023-2-28T15:52:24Z
2023-02-28T13:52:56Z,42.805,6.029,13.3054,4.60105,2470.624,2023-2-28T15:55:28Z
2023-02-28T13:55:59Z,42.805,6.029,13.3059,4.60142,2470.646,2023-2-28T15:58:31Z
2023-02-28T13:59:02Z,42.805,6.029,13.3047,4.60144,2470.646,2023-2-28T16:01:34Z
2023-02-28T14:02:06Z,42.805,6.029,13.3039,4.60144,2470.67,2023-2-28T16:04:37Z
2023-02-28T14:05:09Z,42.805,6.029,13.3044,4.60125,2470.646,2023-2-28T16:07:40Z
2023-02-28T14:08:12Z,42.805,6.029,13.3054,4.60162,2470.637,2023-2-28T16:10:43Z
2023-02-28T14:11:15Z,42.805,6.029,13.3065,4.60133,2470.637,2023-2-28T16:13:46Z
2023-02-28T14:14:18Z,42.805,6.029,13.3056,4.60107,2470.661,2023-2-28T16:16:49Z
2023-02-28T14:17:21Z,42.805,6.029,13.3052,4.60136,2470.624,2023-2-28T16:19:52Z
2023-02-28T14:20:24Z,42.805,6.029,13.3044,4.60109,2470.661,2023-2-28T16:22:55Z
2023-02-28T14:23:27Z,42.805,6.029,13.3060,4.60104,2470.646,2023-2-28T16:25:58Z
2023-02-28T14:26:30Z,42.805,6.029,13.3037,4.60147,2470.661,2023-2-28T16:29:02Z
2023-02-28T14:29:33Z,42.805,6.029,13.3033,4.60098,2470.6,2023-2-28T16:32:05Z
2023-02-28T14:32:36Z,42.805,6.029,13.3039,4.60087,2470.637,2023-2-28T16:35:08Z
2023-02-28T14:35:39Z,42.805,6.029,13.3052,4.60109,2470.624,2023-2-28T16:38:11Z
2023-02-28T14:38:43Z,42.805,6.029,13.3047,4.60112,2470.6,2023-2-28T16:41:14Z
2023-02-28T14:41:46Z,42.805,6.029,13.3030,4.60132,2470.637,2023-2-28T16:44:17Z
2023-02-28T14:44:49Z,42.805,6.029,13.3039,4.60114,2470.624,2023-2-28T16:47:20Z
2023-02-28T14:47:52Z,42.805,6.029,13.3048,4.60125,2470.637,2023-2-28T16:50:23Z
2023-02-28T14:50:55Z,42.805,6.029,13.3048,4.60137,2470.637,2023-2-28T16:53:26Z
2023-02-28T14:53:58Z,42.805,6.029,13.3039,4.60138,2470.646,2023-2-28T16:56:29Z
2023-02-28T14:57:01Z,42.805,6.029,13.3045,4.60110,2470.661,2023-2-28T16:59:32Z
2023-02-28T15:00:04Z,42.805,6.029,13.3051,4.60097,2470.624,2023-2-28T17:02:35Z
2023-02-28T15:03:07Z,42.805,6.029,13.3034,4.60111,2470.624,2023-2-28T17:05:38Z
2023-02-28T15:06:10Z,42.805,6.029,13.3045,4.60112,2470.6,2023-2-28T17:08:42Z
2023-02-28T15:09:13Z,42.805,6.029,13.3050,4.60128,2470.661,2023-2-28T17:11:45Z
2023-02-28T15:12:16Z,42.805,6.029,13.3048,4.60125,2470.624,2023-2-28T17:14:48Z